[[{"header":{"parameterUnit":"m.s-1","parameterCategory":1,"la1":30.2991,"la2":30.254,"lo1":-89.0895,"lo2":-89.0444,"dy":0.0017,"dx":0.0017,"nx":28,"ny":28,"refTime":"2024-04-21T21:00:00:Z","depth":0,"parameterNumber":2,"parameterNumberName":"U-component_of_WINDS"},"data":[0,0,0,0,0,0,0,0,0,0,0,0,0,0,0,0,0,0,0,0,0,0,0,0,0,0,0,0,0,0,0,0,0,0,0,0,0,0,0,0,0,0,0,0,0,0,0,0,0,0,0,0,0,0,0,0,0,0,-3.7538,-3.7538,0,-3.7592,-3.7593,-3.7594,-3.7571,-3.7569,-3.7568,-3.7567,-3.7623,-3.7626,-3.7628,0,0,0,0,0,0,0,0,0,0,0,0,0,-3.7414,-3.7416,-3.7538,-3.7538,-3.7539,-3.7592,-3.7593,-3.7594,-3.7571,-3.7569,-3.7568,-3.7566,-3.7622,-3.7625,-3.7629,0,0,0,0,0,0,0,0,0,0,0,0,0,-3.7468,-3.7417,-3.7537,-3.7534,-3.7534,-3.7592,-3.7593,-3.7594,-3.7571,-3.7569,-3.7567,-3.7565,-3.7621,-3.7625,-3.7629,-3.7694,0,0,-3.7641,-3.7643,0,0,0,0,0,0,0,0,-3.7465,-3.7473,-3.7534,-3.7534,-3.7535,-3.7573,-3.757,-3.7627,-3.7572,-3.7557,-3.7567,-3.7564,-3.7608,-3.7613,-3.7627,-3.7696,-3.7699,-3.7642,-3.7644,-3.7646,-3.7647,0,0,0,0,0,0,0,-3.7461,-3.747,-3.7559,-3.7535,-3.7535,-3.753,-3.7535,-3.7581,-3.7593,-3.7558,-3.7557,-3.7563,-3.7608,-3.7624,-3.7629,-3.77,-3.7642,-3.7645,-3.7648,-3.7649,-3.7825,-3.7828,0,0,0,0,0,0,-3.7458,-3.7467,-3.7558,-3.7561,-3.7494,-3.7534,-3.754,-3.7562,-3.7592,-3.7595,-3.7565,-3.7562,-3.7618,-3.7624,-3.7631,-3.7708,-3.7646,-3.765,-3.7652,-3.7823,-3.7826,-3.7828,0,0,0,0,0,0,-3.7455,-3.7466,-3.7555,-3.7514,-3.7525,-3.7538,-3.7563,-3.7565,-3.758,-3.7598,-3.76,-3.7579,-3.7616,-3.7625,-3.7678,-3.771,-3.7652,-3.7655,-3.7821,-3.7824,-3.7827,-3.7864,0,0,0,0,0,0,-3.7452,-3.7465,-3.7489,-3.7514,-3.7527,-3.7602,-3.7565,-3.7567,-3.7587,-3.7584,-3.7611,-3.7614,-3.7615,-3.7672,-3.7682,-3.7714,-3.7659,-3.7818,-3.7822,-3.7826,-3.786,-3.7868,-3.7875,0,0,0,0,0,-3.7447,-3.7497,-3.7491,-3.7502,-3.7558,-3.7604,-3.7611,-3.7612,-3.759,-3.7615,-3.7626,-3.7613,-3.7705,-3.7678,-3.7689,-3.7723,-3.7816,-3.7821,-3.7826,-3.7857,-3.7867,-3.7875,0,0,0,0,0,0,-3.7475,-3.7501,-3.7493,-3.7553,-3.7577,-3.76,-3.7631,-3.7622,-3.7652,-3.7648,-3.7648,-3.7654,-3.7709,-3.7722,-3.7691,-3.7788,-3.7757,-3.7765,-3.7777,-3.7787,-3.7794,-3.7789,-3.7662,0,0,0,0,0,-3.7489,-3.7524,-3.7544,-3.7595,-3.7607,-3.7617,-3.7637,-3.7636,-3.766,-3.767,-3.7685,-3.7709,-3.7744,-3.7766,-3.7799,-3.7863,-3.7868,-3.7892,-3.7899,-3.7905,-3.7911,-3.7946,-3.7957,-3.7845,-3.7845,-3.7845,0,0,-3.7516,-3.7534,-3.7556,-3.7601,-3.7619,-3.7655,-3.7625,-3.7665,-3.7692,-3.7676,-3.7727,-3.774,-3.7767,-3.7826,-3.7852,-3.7838,-3.7944,-3.7912,-3.7916,-3.7919,-3.7952,-3.7963,-3.7972,-3.7848,-3.7847,-3.7847,0,0,-3.7584,-3.7602,-3.7646,-3.7665,-3.7693,-3.7699,-3.771,-3.7735,-3.7743,-3.7795,-3.7783,-3.7816,-3.7875,-3.7895,-3.7913,-3.7991,-3.798,-3.8002,-3.8041,-3.8075,-3.8084,-3.8092,-3.8119,-3.8129,-3.8009,-3.8009,-3.8009,0,-3.7614,-3.7669,-3.767,-3.7711,-3.7731,-3.7719,-3.7764,-3.7782,-3.7819,-3.7834,-3.7817,-3.7892,-3.7909,-3.7973,-3.7992,-3.8007,-3.802,-3.7998,-3.8083,-3.8091,-3.8098,-3.8124,-3.8134,-3.8011,-3.8011,-3.801,-3.801,0,-3.7705,-3.7743,-3.7775,-3.7812,-3.7836,-3.7879,-3.7887,-3.7911,-3.7909,-3.7918,-3.7971,-3.7992,-3.8029,-3.8044,-3.8042,-3.8108,-3.8098,-3.8082,-3.8051,-3.8111,-3.8135,-3.8145,-3.8014,-3.8014,-3.8013,-3.8012,0,0,-3.779,-3.7828,-3.7839,-3.7856,-3.7887,-3.7916,-3.7959,-3.7996,-3.8016,-3.8043,-3.8079,-3.8131,-3.8117,-3.8137,-3.8138,-3.8168,-3.8228,-3.8148,-3.8149,-3.8162,-3.8302,-3.8312,-3.8324,-3.8222,-3.8224,-3.8225,-3.8299,0,-3.7859,-3.7934,-3.7937,-3.8005,-3.8041,-3.8031,-3.8068,-3.8092,-3.8102,-3.8133,-3.8145,-3.8181,-3.816,-3.8172,-3.8202,-3.8214,-3.8256,-3.8209,-3.8255,-3.8256,-3.8247,-3.8337,-3.8348,-3.8416,-3.8309,-3.8311,-3.8312,0,-3.795,-3.798,-3.8052,-3.8078,-3.8093,-3.8127,-3.8161,-3.8191,-3.8218,-3.8223,-3.8247,-3.8244,-3.8288,-3.8258,-3.8319,-3.8287,-3.8307,-3.8316,-3.8319,-3.8322,-3.8286,-3.8341,-3.8438,-3.8448,-3.8327,-3.8326,-3.8325,0,-3.8004,-3.8062,-3.8113,-3.8127,-3.816,-3.8184,-3.8198,-3.8223,-3.8245,-3.8276,-3.829,-3.8325,-3.8344,-3.8372,-3.8378,-3.8355,-3.844,-3.8409,-3.8445,-3.8445,-3.8461,-3.846,-3.8562,-3.8477,-3.8476,-3.8476,-3.8476,0,-3.808,-3.8124,-3.8137,-3.8168,-3.8218,-3.8222,-3.8271,-3.8284,-3.8306,-3.834,-3.8334,-3.8366,-3.8373,-3.8407,-3.8413,-3.8463,-3.8472,-3.8477,-3.8478,-3.8477,-3.8476,-3.8488,-3.8483,-3.8479,-3.8478,-3.8478,-3.8477,0,-3.8148,-3.8158,-3.8212,-3.8239,-3.8247,-3.8282,-3.8306,-3.8336,-3.8346,-3.8388,-3.8399,-3.8415,-3.8454,-3.8464,-3.8511,-3.8514,-3.8573,-3.857,-3.8564,-3.8563,-3.8598,-3.8594,-3.871,-3.8725,-3.8631,-3.8632,-3.8633,0,-3.8195,-3.8229,-3.826,-3.8282,-3.8298,-3.8333,-3.8356,-3.8362,-3.8386,-3.842,-3.8446,-3.8485,-3.8516,-3.8579,-3.8595,-3.8631,-3.8628,-3.8667,-3.8634,-3.8632,-3.8628,-3.8625,-3.8628,-3.8672,-3.8673,-3.8674,-3.8675,0,-3.8278,-3.8282,-3.8314,-3.8349,-3.8377,-3.8405,-3.8431,-3.845,-3.846,-3.8487,-3.8527,-3.8552,-3.86,-3.8639,-3.8675,-3.8691,-3.8685,-3.8685,-3.8695,-3.8694,-3.8688,-3.8691,-3.858,-3.8682,-3.8681,-3.8681,-3.868,-3.868,-3.8336,-3.8365,-3.8392,-3.8429,-3.845,-3.8475,-3.8505,-3.8519,-3.8553,-3.8592,-3.8594,-3.8638,-3.8666,-3.8714,-3.8732,-3.8767,-3.8755,-3.877,-3.8773,-3.8776,-3.8779,-3.8684,-3.8774,-3.8774,-3.8774,-3.8773,-3.8773,0,-3.8417,-3.8434,-3.8468,-3.8506,-3.8535,-3.8528,-3.8557,-3.8582,-3.8621,-3.8647,-3.8678,-3.8725,-3.8763,-3.8782,-3.882,-3.8844,-3.8842,-3.8854,-3.8851,-3.8855,-3.8788,-3.8775,-3.8855,-3.8855,-3.8855,-3.8855,-3.8855,-3.8855,-3.8463,-3.8513,-3.852,-3.858,-3.8597,-3.864,-3.8658,-3.8681,-3.8702,-3.8754,-3.8786,-3.8799,-3.8823,-3.8862,-3.8897,-3.8902,-3.8916,-3.8928,-3.8932,-3.8868,-3.886,-3.8852,-3.8839,-3.8932,-3.8932,-3.8996,-3.8997,-3.8997]},{"header":{"parameterUnit":"m.s-1","parameterCategory":1,"la1":30.2991,"la2":30.254,"lo1":-89.0895,"lo2":-89.0444,"dy":0.0017,"dx":0.0017,"nx":28,"ny":28,"refTime":"2024-04-21T21:00:00:Z","depth":0,"parameterNumber":3,"parameterNumberName":"V-component_of_WINDS"},"data":[0,0,0,0,0,0,0,0,0,0,0,0,0,0,0,0,0,0,0,0,0,0,0,0,0,0,0,0,0,0,0,0,0,0,0,0,0,0,0,0,0,0,0,0,0,0,0,0,0,0,0,0,0,0,0,0,0,0,3.1549,3.1549,0,3.1549,3.1549,3.1549,3.1527,3.1527,3.1526,3.1526,3.1525,3.1526,3.1526,0,0,0,0,0,0,0,0,0,0,0,0,0,3.1529,3.1529,3.1549,3.1549,3.1549,3.1549,3.1549,3.1549,3.1527,3.1527,3.1526,3.1525,3.1525,3.1526,3.1527,0,0,0,0,0,0,0,0,0,0,0,0,0,3.1534,3.1529,3.1549,3.1538,3.1537,3.1549,3.1549,3.1549,3.1528,3.1527,3.1526,3.1525,3.1525,3.1526,3.1527,3.1549,0,0,3.1529,3.1529,0,0,0,0,0,0,0,0,3.1534,3.1535,3.1539,3.1539,3.1538,3.1537,3.1542,3.1549,3.1528,3.1531,3.1526,3.1524,3.153,3.153,3.1532,3.1549,3.1549,3.1529,3.153,3.153,3.153,0,0,0,0,0,0,0,3.1533,3.1535,3.1549,3.154,3.1538,3.1533,3.1533,3.1544,3.1535,3.1531,3.1529,3.153,3.1529,3.1532,3.1532,3.1549,3.1529,3.153,3.153,3.1531,3.1586,3.1587,0,0,0,0,0,0,3.1535,3.1535,3.1549,3.1549,3.1533,3.1534,3.1534,3.1538,3.1535,3.1534,3.153,3.1528,3.1531,3.1531,3.1532,3.1559,3.153,3.1531,3.1531,3.1585,3.1586,3.1587,0,0,0,0,0,0,3.1534,3.1536,3.1549,3.1541,3.1543,3.1535,3.1541,3.1539,3.1541,3.1535,3.1533,3.1534,3.153,3.1531,3.1545,3.1558,3.1531,3.1532,3.1584,3.1585,3.1587,3.1612,0,0,0,0,0,0,3.1534,3.1536,3.1544,3.1542,3.1543,3.1562,3.1541,3.1539,3.1543,3.154,3.1538,3.1537,3.1529,3.1544,3.1546,3.1559,3.1533,3.1582,3.1584,3.1586,3.161,3.1614,3.1618,0,0,0,0,0,3.1533,3.1551,3.1545,3.1547,3.1553,3.1563,3.1564,3.1555,3.1544,3.1552,3.1549,3.1537,3.1557,3.1546,3.1548,3.1561,3.1582,3.1584,3.1586,3.1608,3.1613,3.1617,0,0,0,0,0,0,3.1554,3.155,3.1543,3.1561,3.1563,3.1559,3.1569,3.156,3.1565,3.1562,3.1551,3.1551,3.1567,3.1566,3.1554,3.1584,3.1567,3.157,3.1583,3.1588,3.1592,3.1591,3.1533,0,0,0,0,0,3.1562,3.157,3.1566,3.1582,3.1583,3.1576,3.158,3.1573,3.1574,3.1574,3.1572,3.1573,3.158,3.1584,3.159,3.161,3.1609,3.162,3.1624,3.1627,3.1629,3.1641,3.1645,3.1594,3.1594,3.1594,0,0,3.1575,3.1574,3.158,3.1586,3.1586,3.1595,3.1577,3.1586,3.1593,3.1576,3.1589,3.1588,3.1588,3.1606,3.1614,3.1605,3.1644,3.163,3.1633,3.1633,3.1643,3.1648,3.1652,3.1596,3.1596,3.1595,0,0,3.1605,3.1605,3.1619,3.162,3.1621,3.1617,3.1621,3.1619,3.1617,3.1631,3.1619,3.1626,3.1638,3.1639,3.1641,3.1674,3.1663,3.1676,3.1696,3.1707,3.1711,3.1714,3.1726,3.173,3.1679,3.1679,3.1679,0,3.1622,3.1635,3.1627,3.1638,3.1641,3.1627,3.1641,3.1643,3.1646,3.1648,3.1639,3.1654,3.1654,3.1672,3.168,3.1682,3.1686,3.1676,3.1711,3.1714,3.1718,3.1728,3.1733,3.168,3.168,3.168,3.168,0,3.1656,3.1665,3.1676,3.168,3.1685,3.1697,3.1691,3.1697,3.169,3.1687,3.1702,3.1701,3.1707,3.1711,3.1704,3.1728,3.1723,3.1713,3.1696,3.1724,3.1734,3.1738,3.1682,3.1682,3.1681,3.1681,0,0,3.1697,3.1698,3.1702,3.1704,3.1705,3.1712,3.1725,3.1731,3.1736,3.1739,3.1749,3.176,3.1751,3.1754,3.1747,3.1757,3.1783,3.1746,3.1746,3.1752,3.181,3.1816,3.1821,3.1777,3.1778,3.1779,3.1809,0,3.1725,3.1746,3.174,3.1761,3.177,3.1758,3.1769,3.1771,3.1769,3.1776,3.1774,3.1782,3.177,3.1771,3.1781,3.1778,3.1794,3.1776,3.1786,3.1786,3.1785,3.1827,3.1834,3.1862,3.1813,3.1814,3.1814,0,3.1761,3.1766,3.1788,3.1789,3.1793,3.1802,3.1808,3.1816,3.1818,3.1816,3.182,3.1813,3.1825,3.181,3.1827,3.1814,3.1818,3.1818,3.1819,3.1818,3.1801,3.1826,3.1871,3.1876,3.182,3.182,3.1819,0,3.1788,3.1801,3.1816,3.1818,3.182,3.1827,3.1828,3.183,3.1835,3.184,3.1843,3.185,3.1853,3.1858,3.1853,3.1842,3.1871,3.1855,3.1869,3.1869,3.1874,3.1874,3.192,3.1879,3.1879,3.1879,3.1879,0,3.182,3.1833,3.1828,3.1837,3.1853,3.1846,3.1862,3.1862,3.1864,3.1873,3.1864,3.1872,3.1865,3.1873,3.1869,3.1884,3.1886,3.1884,3.1883,3.1884,3.1885,3.1886,3.1883,3.188,3.188,3.1879,3.1879,0,3.1851,3.1849,3.1864,3.1865,3.1866,3.1877,3.1878,3.1887,3.1885,3.1897,3.1899,3.1896,3.1906,3.1901,3.1911,3.1908,3.1927,3.1923,3.1926,3.1925,3.1939,3.1938,3.1987,3.1993,3.1949,3.1949,3.1949,0,3.1871,3.1882,3.1885,3.189,3.1892,3.1902,3.1907,3.1901,3.1907,3.1912,3.192,3.1929,3.1935,3.1951,3.1949,3.1957,3.1953,3.197,3.1954,3.1955,3.1952,3.1951,3.1952,3.1972,3.1973,3.1973,3.1973,0,3.1907,3.1905,3.1913,3.1921,3.1927,3.1933,3.1938,3.1943,3.1938,3.1945,3.1955,3.196,3.1971,3.1979,3.1986,3.1987,3.198,3.1979,3.1982,3.1983,3.1984,3.1984,3.1934,3.1977,3.1977,3.1977,3.1976,3.1976,3.1933,3.1942,3.1946,3.1955,3.1958,3.1964,3.1972,3.1972,3.198,3.1989,3.1985,3.1997,3.2,3.2009,3.2012,3.202,3.2014,3.2019,3.202,3.2021,3.2023,3.1984,3.2022,3.2022,3.2022,3.2021,3.2021,0,3.1967,3.1969,3.1978,3.1986,3.1994,3.1987,3.1993,3.1999,3.2009,3.2014,3.2021,3.2033,3.2042,3.2042,3.205,3.2057,3.2054,3.206,3.2058,3.2059,3.2029,3.2024,3.2062,3.2062,3.2062,3.2062,3.2062,3.2062,3.1986,3.2001,3.2,3.2018,3.202,3.2031,3.2035,3.204,3.2044,3.2057,3.2065,3.2066,3.2068,3.2077,3.2085,3.2085,3.2088,3.2095,3.2094,3.2065,3.2061,3.2057,3.2053,3.2096,3.2096,3.2123,3.2123,3.2123]}]]